Weather History for Red Oak, IA

Change the Weather History Date:

Tuesday, November 5, 2013

  Actual Average Record
Temperature  
Mean Temperature 47 °F -  
Max Temperature 57 °F 52 °F 73 °F (2001)
Min Temperature 37 °F 30 °F 10 °F (1951)
Degree Days  
Heating Degree Days 18    
Moisture  
Dew Point 44 °F    
Average Humidity 92    
Maximum Humidity 100    
Minimum Humidity 76    
Precipitation  
Precipitation 0.74 in - - ()
Sea Level Pressure  
Sea Level Pressure 29.97 in    
Wind  
Wind Speed 9 mph (NE)    
Max Wind Speed 21 mph    
Max Gust Speed 29 mph    
Visibility 6 miles    
Events Rain    
Averages and records for this station are not official NWS values.
T = Trace of Precipitation, MM = Missing Value Source: NWS Daily Summary

Daily Weather History Graph

Daily Weather History Graph

Search for Another Location

Airport:

Trip Planner

Search our weather history database for the weather conditions in past years. The results will help you decide how hot, cold, wet, or windy it might be!

Date:

Astronomy

Nov. 05, 2013 Rise Set
Actual Time 6:56 AM CST 5:11 PM CST
Civil Twilight 6:28 AM CST 5:40 PM CST
Nautical Twilight 5:55 AM CST 6:13 PM CST
Astronomical Twilight 5:23 AM CST 6:45 PM CST
Moon 9:13 AM CST (11/5) 7:13 PM CST (11/5)
Length of Visible Light 11h 12m
Length of Day
10h 14m
Waxing Crescent, 7% of the Moon is Illuminated
Nov 5
Waxing Crescent
Nov 9
First Quarter
Nov 17
Full
Nov 25
Last Quarter
Dec 2
New

Hourly Weather History & Observations

Time (CST) Temp. Windchill Dew Point Humidity Pressure Visibility Wind Dir Wind Speed Gust Speed Precip Events Conditions
12:15 AM 44.6 °F 40.7 °F 39.2 °F 81% 30.14 in 10.0 mi NNE 6.9 mph - N/A   Overcast
12:35 AM 44.6 °F - 39.2 °F 81% 30.14 in 10.0 mi Calm Calm - N/A   Overcast
12:55 AM 44.6 °F 42.2 °F 39.2 °F 81% 30.14 in 10.0 mi NNE 4.6 mph - N/A   Overcast
1:15 AM 44.6 °F 42.2 °F 39.2 °F 81% 30.14 in 10.0 mi NNE 4.6 mph - N/A   Overcast
1:35 AM 44.6 °F 41.4 °F 41.0 °F 87% 30.13 in 10.0 mi NNE 5.8 mph - N/A   Overcast
1:55 AM 44.6 °F 40.2 °F 41.0 °F 87% 30.13 in 10.0 mi NE 8.1 mph - N/A   Overcast
2:15 AM 44.6 °F 40.7 °F 41.0 °F 87% 30.13 in 10.0 mi NNE 6.9 mph - N/A   Overcast
2:35 AM 44.6 °F 41.4 °F 41.0 °F 87% 30.13 in 10.0 mi NNE 5.8 mph - N/A   Overcast
2:55 AM 44.6 °F 41.4 °F 41.0 °F 87% 30.13 in 10.0 mi North 5.8 mph - N/A   Overcast
3:15 AM 46.4 °F 42.9 °F 41.0 °F 81% 30.12 in 10.0 mi NE 6.9 mph - N/A   Unknown
3:35 AM 46.4 °F 42.9 °F 41.0 °F 81% 30.12 in 10.0 mi NNE 6.9 mph - N/A   Unknown
3:55 AM 46.4 °F 42.4 °F 41.0 °F 81% 30.12 in 10.0 mi NE 8.1 mph 15.0 mph N/A   Overcast
4:15 AM 46.4 °F 42.9 °F 41.0 °F 81% 30.12 in 10.0 mi NNE 6.9 mph - N/A   Unknown
4:35 AM 46.4 °F 44.3 °F 41.0 °F 81% 30.12 in 10.0 mi NNE 4.6 mph - N/A   Overcast
4:55 AM 48.2 °F - 41.0 °F 76% 30.12 in 10.0 mi ENE 5.8 mph - N/A   Overcast
5:15 AM 48.2 °F - 41.0 °F 76% 30.12 in 10.0 mi ENE 9.2 mph - N/A   Overcast
5:35 AM 48.2 °F - 41.0 °F 76% 30.11 in 10.0 mi ENE 10.4 mph - N/A   Overcast
5:55 AM 48.2 °F - 41.0 °F 76% 30.11 in 10.0 mi ENE 11.5 mph - N/A   Overcast
6:15 AM 48.2 °F - 41.0 °F 76% 30.10 in 10.0 mi ENE 12.7 mph - N/A   Overcast
6:35 AM 48.2 °F - 41.0 °F 76% 30.10 in 10.0 mi ENE 12.7 mph 18.4 mph N/A   Overcast
6:55 AM 46.4 °F 39.5 °F 41.0 °F 81% 30.08 in 10.0 mi ENE 17.3 mph - N/A   Overcast
7:15 AM 46.4 °F 39.8 °F 42.8 °F 87% 30.08 in 10.0 mi East 16.1 mph - N/A   Overcast
7:35 AM 46.4 °F 40.7 °F 42.8 °F 87% 30.08 in 10.0 mi ENE 12.7 mph 20.7 mph N/A   Overcast
7:55 AM 46.4 °F 40.4 °F 42.8 °F 87% 30.08 in 10.0 mi East 13.8 mph 19.6 mph N/A   Overcast
8:15 AM 44.6 °F 38.4 °F 42.8 °F 93% 30.08 in 4.0 mi East 12.7 mph 20.7 mph N/A   Overcast
8:35 AM 46.4 °F 40.4 °F 42.8 °F 87% 30.07 in 10.0 mi East 13.8 mph 20.7 mph N/A   Overcast
8:55 AM 46.4 °F 40.4 °F 44.6 °F 93% 30.07 in 9.0 mi East 13.8 mph 20.7 mph N/A   Overcast
9:15 AM 46.4 °F 39.8 °F 44.6 °F 93% 30.06 in 9.0 mi East 16.1 mph - N/A   Overcast
9:35 AM 46.4 °F 40.4 °F 44.6 °F 93% 30.05 in 2.5 mi East 13.8 mph 19.6 mph N/A   Overcast
9:55 AM 46.4 °F 41.5 °F 44.6 °F 93% 30.03 in 3.0 mi East 10.4 mph 18.4 mph N/A   Overcast
10:15 AM 46.4 °F 40.7 °F 46.4 °F 100% 30.02 in 2.0 mi East 12.7 mph - N/A   Overcast
10:35 AM 48.2 °F - 46.4 °F 93% 30.00 in 3.0 mi East 16.1 mph - N/A   Overcast
10:55 AM 48.2 °F - 46.4 °F 93% 29.99 in 1.0 mi East 15.0 mph - N/A   Overcast
11:15 AM 48.2 °F - 48.2 °F 100% 29.97 in 1.0 mi East 12.7 mph - N/A   Overcast
11:35 AM 50.0 °F - 48.2 °F 94% 29.96 in 2.5 mi ESE 9.2 mph 19.6 mph N/A   Overcast
11:55 AM 50.0 °F - 50.0 °F 100% 29.94 in 2.0 mi East 10.4 mph 17.3 mph N/A   Light Drizzle
12:15 PM 51.8 °F - 50.0 °F 94% 29.91 in 3.0 mi East 10.4 mph - N/A Rain Light Rain
12:35 PM 51.8 °F - 51.8 °F 100% 29.90 in 2.5 mi SE 8.1 mph 19.6 mph N/A   Light Drizzle
12:55 PM 53.6 °F - 51.8 °F 94% 29.88 in 1.5 mi SE 11.5 mph - 0.04 in Rain Light Rain
1:15 PM 53.6 °F - 53.6 °F 100% 29.87 in 2.0 mi SSE 10.4 mph - N/A Rain Light Rain
1:35 PM 53.6 °F - 53.6 °F 100% 29.86 in - SSE 8.1 mph - N/A Rain Light Rain
1:55 PM 53.6 °F - 53.6 °F 100% 29.86 in 1.8 mi South 6.9 mph - 0.14 in Rain Light Rain
2:15 PM 55.4 °F - 53.6 °F 94% 29.84 in 3.0 mi South 5.8 mph - N/A Rain Light Rain
2:35 PM 55.4 °F - 53.6 °F 94% 29.84 in 6.0 mi South 3.5 mph - N/A Rain Light Rain
2:55 PM 55.4 °F - 55.4 °F 100% 29.84 in 6.0 mi Variable 5.8 mph - 0.07 in   Overcast
3:15 PM 55.4 °F - 53.6 °F 94% 29.83 in 1.8 mi North 6.9 mph - N/A Rain Rain
3:35 PM 50.0 °F - 50.0 °F 100% 29.83 in 2.5 mi NNE 8.1 mph - N/A Rain Rain
3:55 PM 48.2 °F - 48.2 °F 100% 29.82 in 2.0 mi NNE 8.1 mph - 0.20 in Rain Rain
4:15 PM 48.2 °F - 48.2 °F 100% 29.82 in 1.5 mi NE 3.5 mph - N/A Rain Light Rain
4:35 PM 48.2 °F - 48.2 °F 100% 29.81 in 1.0 mi NE 3.5 mph - N/A Rain Rain
4:55 PM 48.2 °F - 48.2 °F 100% 29.81 in 1.2 mi NNE 4.6 mph - 0.07 in Rain Rain
5:15 PM 48.2 °F - 48.2 °F 100% 29.80 in 5.0 mi North 4.6 mph - N/A Rain Light Rain
5:35 PM 50.0 °F - 50.0 °F 100% 29.79 in 10.0 mi Calm Calm - N/A   Light Drizzle
5:55 PM 57.2 °F - 57.2 °F 100% 29.78 in 4.0 mi South 13.8 mph 20.7 mph 0.02 in Rain Light Rain
6:15 PM 57.2 °F - 57.2 °F 100% 29.79 in 5.0 mi South 15.0 mph 23.0 mph N/A Rain Light Rain
6:35 PM 46.4 °F 39.5 °F 46.4 °F 100% 29.81 in 4.0 mi NW 17.3 mph 27.6 mph N/A Rain Light Rain
6:55 PM 44.6 °F 37.8 °F 44.6 °F 100% 29.82 in 10.0 mi NNW 15.0 mph 21.9 mph 0.04 in   Light Drizzle
7:15 PM 44.6 °F 39.2 °F 42.8 °F 93% 29.83 in 3.0 mi NNW 10.4 mph - N/A Rain Light Rain
7:35 PM 42.8 °F - 42.8 °F 100% 29.83 in 3.0 mi North - - N/A Rain Light Rain
7:55 PM 42.8 °F 37.5 °F 42.8 °F 100% 29.85 in 3.0 mi NNW 9.2 mph - 0.03 in Rain Light Rain
8:15 PM 42.8 °F 36.2 °F 42.8 °F 100% 29.85 in 2.0 mi NW 12.7 mph - N/A   Overcast
8:35 PM 42.8 °F 36.6 °F 41.0 °F 93% 29.87 in 3.0 mi NW 11.5 mph 18.4 mph N/A Rain Rain
8:55 PM 41.0 °F 33.9 °F 41.0 °F 100% 29.86 in 6.0 mi NNW 12.7 mph 18.4 mph 0.13 in Rain Light Rain
9:15 PM 41.0 °F 33.1 °F 39.2 °F 93% 29.88 in 8.0 mi NNW 15.0 mph 24.2 mph N/A   Overcast
9:35 PM 41.0 °F 33.9 °F 37.4 °F 87% 29.90 in 10.0 mi NNW 12.7 mph 23.0 mph N/A   Overcast
9:55 PM 39.2 °F 30.2 °F 37.4 °F 93% 29.91 in 10.0 mi NNW 17.3 mph 25.3 mph N/A   Overcast
10:15 PM 39.2 °F 29.3 °F 37.4 °F 93% 29.92 in 10.0 mi NNW 20.7 mph 27.6 mph N/A   Overcast
10:35 PM 39.2 °F 30.5 °F 37.4 °F 93% 29.93 in 10.0 mi NNW 16.1 mph 21.9 mph N/A   Overcast
10:55 PM 37.4 °F 27.5 °F 37.4 °F 100% 29.94 in 3.0 mi NNW 18.4 mph 28.8 mph N/A   Light Drizzle
11:15 PM 37.4 °F 28.9 °F 37.4 °F 100% 29.94 in 3.0 mi NNW 13.8 mph 24.2 mph N/A   Light Drizzle
11:35 PM 37.4 °F 28.5 °F 35.6 °F 93% 29.95 in 4.0 mi NNW 15.0 mph 20.7 mph N/A   Light Drizzle
11:55 PM 37.4 °F 27.5 °F 35.6 °F 93% 29.97 in 10.0 mi NNW 18.4 mph 25.3 mph N/A   Overcast